Flag for U.S.A. Weather past 2 weeks in Palestine, Texas, U.S.A.

Now
82 °F

Scattered clouds.


Feels Like: 87 °F
Forecast: 70 / 88 °F
Wind: 5 mph from Southeast

Location: Palestine Municipal Airport

Current Time: May 28, 2015 at 12:23:53 PM

Latest Report: May 28, 2015 at 11:55 AM


Visibility: 10 mi

Pressure: 30.12 "Hg

Humidity: 70%

Dew point: 72 °F

Location of PalestineLocation

Historic Weather in Palestine — Graph

°F

Palestine temperature yesterday

Maximum temperature yesterday: 84 °F (at 5:55 PM)
Minimum temperature yesterday: 64 °F (at 4:15 AM)
Average temperature yesterday: 74 °F

Past Weeks' High & Low Weather Summary

 TemperatureHumidityPressure
High87 °F (May 16, 3:55 PM)100% (May 13, 11:35 PM)30.21 "Hg (May 13, 11:35 PM)
Low59 °F (May 22, 7:15 AM)59% (May 20, 3:55 PM)29.83 "Hg (May 16, 6:15 PM)
Average73 °F88%30.03 "Hg
* Reported May 13 11:15 AM — May 28 11:15 AM, Palestine, Weather by CustomWeather, © 2015

Note: Actual official high and low records may vary slightly from our data, if they occured in-between our weather recording intervals... More about our weather records

Advertising

Palestine weather history for previous 24 hours

 ConditionsComfort  
Time TempWeatherWind HumidityBarometerVisibility
11:15 AM
Thu, May 28
81 °FBroken clouds.5 mph76%30.13 "Hg10 mi
10:55 AM81 °FScattered clouds.7 mph76%30.12 "Hg10 mi
10:35 AM79 °FScattered clouds.6 mph81%30.11 "Hg10 mi
10:15 AM77 °FPartly sunny.6 mph84%30.12 "Hg10 mi
9:55 AM77 °FPartly sunny.7 mph84%30.12 "Hg10 mi
9:35 AM78 °FPartly sunny.7 mph82%30.11 "Hg10 mi
9:15 AM77 °FScattered clouds.8 mph84%30.11 "Hg10 mi
8:55 AM76 °FSunny.6 mph87%30.09 "Hg10 mi
8:35 AM75 °FSunny.8 mph90%30.09 "Hg10 mi
8:15 AM74 °FSunny.6 mph93%30.08 "Hg10 mi
7:55 AM73 °FSunny.3 mph94%30.08 "Hg10 mi
7:35 AM72 °FSunny.5 mph96%30.08 "Hg10 mi
7:15 AM71 °FClear.3 mph98%30.08 "Hg10 mi
6:55 AM70 °FClear.No wind100%30.09 "Hg10 mi
6:35 AM70 °FClear.No wind98%30.09 "Hg10 mi
6:15 AM70 °FClear.No wind98%30.09 "Hg10 mi
5:55 AM70 °FClear.3 mph98%30.08 "Hg10 mi
5:35 AM70 °FClear.No wind99%30.09 "Hg10 mi
5:15 AM70 °FClear.No wind94%30.08 "Hg10 mi
4:55 AM70 °FClear.No wind97%30.08 "Hg10 mi
4:35 AM70 °FClear.No wind97%30.08 "Hg10 mi
4:15 AM72 °FClear.No wind93%30.07 "Hg10 mi
3:55 AM72 °FClear.No wind92%30.07 "Hg10 mi
3:35 AM72 °FClear.No wind91%30.06 "Hg10 mi
3:15 AM73 °FClear.3 mph91%30.06 "Hg10 mi
2:55 AM73 °FClear.3 mph91%30.06 "Hg10 mi
2:15 AM74 °FClear.No wind89%30.05 "Hg10 mi
1:55 AM74 °FClear.5 mph88%30.05 "Hg10 mi
1:35 AM74 °FClear.5 mph89%30.05 "Hg10 mi
1:15 AM75 °FClear.3 mph88%30.06 "Hg10 mi
12:55 AM74 °FClear.5 mph89%30.06 "Hg10 mi
12:35 AM75 °FClear.3 mph90%30.06 "Hg10 mi
12:15 AM74 °FClear.5 mph91%30.07 "Hg10 mi
11:55 PM
Wed, May 27
74 °FClear.No wind91%30.07 "Hg10 mi
11:35 PM75 °FClear.5 mph90%30.06 "Hg10 mi
11:15 PM75 °FClear.3 mph91%30.08 "Hg10 mi
10:15 PM77 °FClear.No wind88%30.08 "Hg10 mi
9:55 PM77 °FClear.No wind87%30.06 "Hg10 mi
9:35 PM77 °FClear.3 mph87%30.05 "Hg10 mi
9:15 PM77 °FSunny.3 mph86%30.04 "Hg10 mi
8:55 PM78 °FSunny.3 mph87%30.04 "Hg10 mi
8:15 PM78 °FSunny.No wind88%30.04 "Hg10 mi
7:55 PM79 °FSunny.3 mph86%30.04 "Hg10 mi
7:15 PM81 °FSunny.3 mph80%30.03 "Hg10 mi
6:55 PM81 °FSunny.3 mph78%30.03 "Hg10 mi
6:35 PM82 °FSunny.3 mph77%30.03 "Hg10 mi
6:15 PM84 °FSunny.5 mph71%30.03 "Hg10 mi
5:55 PM84 °FSunny.3 mph69%30.04 "Hg10 mi
5:15 PM83 °FSunny.3 mph67%30.04 "Hg10 mi
4:15 PM80 °FSunny.No wind83%30.06 "Hg10 mi
3:55 PM77 °FLight rain. Scattered clouds.3 mph92%30.07 "Hg10 mi
3:35 PM77 °FLight rain. Cloudy.No wind87%30.08 "Hg10 mi
3:15 PM79 °FLight rain. Broken clouds.5 mph84%30.07 "Hg10 mi
2:55 PM80 °FLight rain. Partly sunny.No wind77%30.08 "Hg10 mi
2:35 PM81 °FBroken clouds.5 mph72%30.08 "Hg10 mi
2:15 PM84 °FPartly sunny.6 mph65%30.09 "Hg10 mi
1:55 PM83 °FPartly sunny.5 mph67%30.09 "Hg10 mi
1:15 PM83 °FScattered clouds.6 mph65%30.10 "Hg10 mi
12:55 PM82 °FScattered clouds.6 mph68%30.10 "Hg10 mi
12:15 PM80 °FScattered clouds.7 mph66%30.11 "Hg10 mi
Weather by CustomWeather, © 2015

See weather overviewHow to use our weather pages